{"data":{"norad_id":69727,"epoch":"2026-09-20T04:00:03.000096Z","epoch_age_seconds":50426,"freshness":"FRESH","line1":"1 69727U 26147Z   26263.16670139 -.00124801  00000+0 -84655-3 0  9991","line2":"2 69727  97.2845 302.8306 0001418  86.6683 102.3405 15.75232112  5998","mean_motion":15.75232112,"eccentricity":0.0001418,"inclination_deg":97.2845,"raan_deg":302.8306,"arg_perigee_deg":86.6683,"mean_anomaly_deg":102.3405,"bstar":-0.00084655,"rev_number":599,"period_min":91.415099338706,"perigee_km":343.01756597642,"apogee_km":344.9239557374,"semimajor_km":6722.1077608569,"source":"CELESTRAK","updated_at":"2026-09-20T09:00:44.285531Z"}}